Simultaneous Nadir Overpasses (SNOs) Predictions

Prediction of SNOs between LANDSAT-8 and METOP-A Satellite Orbit:

Table of predicted SNOs for the next 14.0 days since TLE Epoch: 2/18/2017
Index Date (LANDSAT-8) Time (LANDSAT-8) Lat,Lon (LANDSAT-8) SZA (LANDSAT-8 ) Date (METOP-A) Time (METOP-A) Lat,Lon (METOP-A) SZA (METOP-A ) Distance(km) Time Diff (sec)
1 02/19/2017 18:01:43 81.14, -50.60 93.80 02/19/2017 18:01:15 81.14, -50.58 93.80 0.47 28
2 02/19/2017 18:51:09 -81.16, 117.32 86.17 02/19/2017 18:51:54 -81.16, 117.32 86.15 0.16 45
3 02/22/2017 13:35:57 81.14, 15.92 92.81 02/22/2017 13:35:36 81.14, 15.99 92.81 1.27 21
4 02/22/2017 14:25:23 -81.16,-176.13 87.17 02/22/2017 14:26:15 -81.16,-176.07 87.14 1.05 52
5 02/25/2017 09:10:10 81.15, 82.41 91.79 02/25/2017 09:09:56 81.15, 82.55 91.80 2.54 14
6 02/25/2017 09:59:36 -81.17,-109.62 88.18 02/25/2017 10:00:35 -81.17,-109.48 88.15 2.46 59
7 02/28/2017 04:44:24 81.15, 148.85 90.75 02/28/2017 04:44:18 81.14, 148.72 90.73 2.36 6
8 02/28/2017 05:33:50 -81.17, -43.15 89.22 02/28/2017 05:34:57 -81.16, -43.27 89.21 2.27 67
9 03/02/2017 23:29:13 -81.12, 47.25 90.36 03/02/2017 23:28:00 -81.12, 47.30 90.38 0.76 73
10 03/03/2017 00:18:38 81.15,-144.74 89.69 03/03/2017 00:18:39 81.15,-144.74 89.69 0.13 1




NCC Satellite Simultaneous Nadir Overpasses (SNOs) Prediction Service
